Craig, CO

7:07 AM MDT on June 25, 2017 (GMT -0600)
Craig-Moffat

Weather History for KCAG - January, 2012

Change the Weather History Date:

Saturday, January 21, 2012

  Actual Average Record
Temperature  
Mean Temperature 35 °F 16 °F  
Max Temperature 48 °F 30 °F 48 °F (2005)
Min Temperature 22 °F 3 °F -14 °F (2013)
Degree Days  
Heating Degree Days 30 49  
Month to date heating degree days 860 1044  
Since 1 July heating degree days 4121 4600  
Cooling Degree Days 0 0  
Month to date cooling degree days 0  
Year to date cooling degree days 0  
Moisture  
Dew Point 29 °F    
Average Humidity 63    
Maximum Humidity 92    
Minimum Humidity 34    
Precipitation  
Precipitation 0.08 in 0.03 in 0.18 in (2000)
Month to date precipitation 0.18 0.57  
Year to date precipitation 0.18 0.57  
Sea Level Pressure  
Sea Level Pressure 29.57 in    
Wind  
Wind Speed 9 mph (WSW)    
Max Wind Speed 28 mph    
Max Gust Speed 37 mph    
Visibility 7 miles    
Events Fog , Rain , Snow    
T = Trace of Precipitation, MM = Missing Value Source: NWS Daily Summary

Daily Weather History Graph

Daily Weather History Graph

Search for Another Location

Airport or City:

Trip Planner

Search our weather history database for the weather conditions in past years. The results will help you decide how hot, cold, wet, or windy it might be!

Date:

Astronomy

Jan. 21, 2012 Rise Set
Actual Time 7:28 AM MST 5:14 PM MST
Civil Twilight 6:58 AM MST 5:44 PM MST
Nautical Twilight 6:25 AM MST 6:17 PM MST
Astronomical Twilight 5:53 AM MST 6:49 PM MST
Moon 6:02 AM MST (1/21) 3:53 PM MST (1/21)
Length of Visible Light 10h 45m
Length of Day
9h 45m
Waning Crescent, 3% of the Moon is Illuminated
Jan 21
Waning Crescent
Jan 23
New
Jan 30
First Quarter
Feb 7
Full
Feb 14
Last Quarter

Hourly Weather History & Observations

Time (MST) Temp. Windchill Dew Point Humidity Pressure Visibility Wind Dir Wind Speed Gust Speed Precip Events Conditions
12:53 AM 26.6 °F 22.6 °F 21.2 °F 80% 29.92 in 10.0 mi ESE 3.5 mph - N/A   Mostly Cloudy
1:53 AM 28.9 °F - 24.1 °F 82% 29.90 in 10.0 mi Calm Calm - N/A   Overcast
2:53 AM 28.9 °F - 26.1 °F 89% 29.88 in 10.0 mi Calm Calm - N/A   Overcast
3:53 AM 32.0 °F 27.5 °F 25.0 °F 75% 29.86 in 10.0 mi ENE 4.6 mph - N/A   Overcast
4:53 AM 33.1 °F 26.9 °F 24.1 °F 70% 29.86 in 10.0 mi ENE 6.9 mph - N/A   Overcast
5:53 AM 30.2 °F - 24.8 °F 80% 29.83 in 10.0 mi Calm Calm - N/A   Overcast
6:53 AM 33.1 °F 26.9 °F 24.1 °F 70% 29.86 in 10.0 mi East 6.9 mph - N/A   Overcast
7:53 AM 36.0 °F 29.6 °F 23.0 °F 59% 29.82 in 10.0 mi East 8.1 mph - N/A   Mostly Cloudy
8:53 AM 37.0 °F 32.4 °F 24.1 °F 59% 29.79 in 10.0 mi West 5.8 mph - N/A   Mostly Cloudy
9:53 AM 39.0 °F 35.7 °F 26.1 °F 60% 29.72 in 10.0 mi ENE 4.6 mph - N/A   Scattered Clouds
10:50 AM 48.2 °F - 21.2 °F 34% 29.61 in 10.0 mi SW 20.7 mph 27.6 mph N/A   Overcast
10:53 AM 48.0 °F - 21.9 °F 36% 29.61 in 10.0 mi SW 21.9 mph 27.6 mph N/A   Overcast
11:53 AM 41.0 °F 32.8 °F 30.9 °F 67% 29.62 in 10.0 mi WSW 16.1 mph 27.6 mph N/A   Overcast
12:53 PM 39.0 °F 31.4 °F 33.1 °F 79% 29.56 in 10.0 mi West 12.7 mph - 0.00 in Rain Light Rain
1:53 PM 41.0 °F 35.8 °F 35.1 °F 79% 29.50 in 10.0 mi SSW 8.1 mph - 0.01 in   Overcast
2:48 PM 39.2 °F 35.0 °F 33.8 °F 81% 29.49 in 5.0 mi West 5.8 mph - 0.01 in Rain Light Rain
2:53 PM 39.0 °F 36.8 °F 34.0 °F 82% 29.50 in 6.0 mi West 3.5 mph - 0.01 in Rain Light Rain
3:10 PM 39.2 °F - 35.6 °F 87% 29.48 in 10.0 mi Calm Calm - 0.00 in   Overcast
3:33 PM 39.2 °F 34.2 °F 33.8 °F 81% 29.47 in 10.0 mi NNW 6.9 mph - 0.00 in   Overcast
3:53 PM 39.0 °F 32.3 °F 33.1 °F 79% 29.48 in 10.0 mi WSW 10.4 mph 19.6 mph 0.00 in   Overcast
4:13 PM 39.2 °F 31.6 °F 33.8 °F 81% 29.48 in 10.0 mi WSW 12.7 mph - 0.00 in Rain Light Rain
4:53 PM 37.9 °F 28.9 °F 32.0 °F 79% 29.47 in 10.0 mi WSW 16.1 mph 24.2 mph 0.00 in Rain Light Rain
5:53 PM 39.9 °F 31.8 °F 30.0 °F 68% 29.42 in 10.0 mi SW 15.0 mph 25.3 mph 0.00 in   Partly Cloudy
6:53 PM 37.9 °F 32.1 °F 30.0 °F 73% 29.42 in 10.0 mi SW 8.1 mph - N/A   Clear
7:53 PM 37.0 °F 28.5 °F 28.9 °F 73% 29.41 in 10.0 mi West 13.8 mph - N/A   Scattered Clouds
8:53 PM 37.9 °F 30.5 °F 28.9 °F 70% 29.40 in 10.0 mi SW 11.5 mph - N/A   Scattered Clouds
9:53 PM 37.9 °F 30.0 °F 28.9 °F 70% 29.39 in 10.0 mi SW 12.7 mph - N/A   Overcast
10:31 PM 35.6 °F 25.2 °F 30.2 °F 81% 29.44 in 1.8 mi WNW 18.4 mph 26.5 mph 0.01 in Snow Light Snow
10:36 PM 33.8 °F 23.9 °F 30.2 °F 87% 29.45 in 1.0 mi WNW 15.0 mph 26.5 mph 0.02 in Snow Light Snow
10:43 PM 33.8 °F 24.8 °F 30.2 °F 87% 29.45 in 0.8 mi WNW 12.7 mph - 0.03 in Snow Light Snow
10:49 PM 33.8 °F 23.9 °F 30.2 °F 87% 29.45 in 0.5 mi West 15.0 mph - 0.04 in Fog , Snow Snow
10:53 PM 33.1 °F 23.4 °F 30.9 °F 92% 29.40 in 0.5 mi West 13.8 mph - 0.05 in Fog , Snow Snow
11:00 PM 33.8 °F 24.8 °F 30.2 °F 87% 29.46 in 1.0 mi West 12.7 mph - 0.01 in Snow Light Snow
11:02 PM 33.8 °F 24.3 °F 30.2 °F 87% 29.45 in 1.8 mi West 13.8 mph - 0.01 in Snow Light Snow
11:04 PM 33.8 °F 23.9 °F 30.2 °F 87% 29.46 in 3.0 mi West 15.0 mph - 0.01 in Snow Light Snow
11:22 PM 33.8 °F 25.8 °F 30.2 °F 87% 29.46 in 1.8 mi West 10.4 mph - 0.01 in Snow Light Snow
11:33 PM 33.8 °F 25.3 °F 30.2 °F 87% 29.47 in 2.5 mi WSW 11.5 mph - 0.01 in Snow Light Snow
11:49 PM 33.8 °F 25.3 °F 30.2 °F 87% 29.47 in 5.0 mi WSW 11.5 mph - 0.01 in Snow Light Snow
11:53 PM 33.1 °F 24.4 °F 30.9 °F 92% 29.46 in 5.0 mi West 11.5 mph - 0.01 in Snow Light Snow